Location: Cactus School
(34.5700°N, 118.0931°W)
Time: 21:13:48
(UTC-07:00)

Vanguard 2 - Pass Details

Date: 29 April 2024
Orbit: 553 x 2914 km, 32.9° (Epoch: 18 May)

Event Time Altitude Azimuth Distance (km) Brightness Sun altitude
Rises 22:04:45 0° 217° (SW) 3,749 11.0 -26.9°
Reaches altitude 10° 22:07:12 10° 208° (SSW) 3,052 10.4 -27.3°
Enters shadow 22:07:40 12° 206° (SSW) 2,933 10.3 -27.3°
Exits shadow 22:25:56 - 81° (E) 4,955 11.3 -29.9°
Sets 22:30:14 0° 76° (ENE) 6,140 11.9 -30.5°
